Year,Month,Day,Hour,Minute,Value (Times are PST for windgust in km/hr)
2016,03,12,00,00,1.60
2016,03,12,00,05,1.60
2016,03,12,00,06,1.60
2016,03,12,00,07,3.20
2016,03,12,00,08,1.60
2016,03,12,00,15,1.60
2016,03,12,00,16,1.60
2016,03,12,00,17,3.20
2016,03,12,00,18,3.20
2016,03,12,00,19,4.80
2016,03,12,00,20,4.80
2016,03,12,00,21,3.20
2016,03,12,00,27,1.60
2016,03,12,00,28,3.20
2016,03,12,00,29,3.20
2016,03,12,00,32,1.60
2016,03,12,00,34,1.60
2016,03,12,00,36,1.60
2016,03,12,00,37,1.60
2016,03,12,00,38,3.20
2016,03,12,00,39,1.60
2016,03,12,00,41,1.60
2016,03,12,00,56,1.60
2016,03,12,00,57,1.60
2016,03,12,01,06,1.60
2016,03,12,01,44,1.60
2016,03,12,01,56,3.20
2016,03,12,01,57,3.20
2016,03,12,01,58,1.60
2016,03,12,02,01,4.80
2016,03,12,02,02,1.60
2016,03,12,02,07,1.60
2016,03,12,02,08,1.60
2016,03,12,02,17,1.60
2016,03,12,02,21,1.60
2016,03,12,02,22,1.60
2016,03,12,02,24,1.60
2016,03,12,02,25,3.20
2016,03,12,02,26,1.60
2016,03,12,02,27,1.60
2016,03,12,02,42,1.60
2016,03,12,02,43,3.20
2016,03,12,02,44,3.20
2016,03,12,02,45,3.20
2016,03,12,03,03,1.60
2016,03,12,03,05,3.20
2016,03,12,03,06,3.20
2016,03,12,03,07,4.80
2016,03,12,03,08,1.60
2016,03,12,03,09,1.60
2016,03,12,03,10,6.40
2016,03,12,03,11,4.80
2016,03,12,03,12,3.20
2016,03,12,03,13,1.60
2016,03,12,03,14,3.20
2016,03,12,03,15,1.60
2016,03,12,03,31,1.60
2016,03,12,03,32,4.80
2016,03,12,03,33,4.80
2016,03,12,03,34,3.20
2016,03,12,03,35,3.20
2016,03,12,03,36,1.60
2016,03,12,03,42,3.20
2016,03,12,03,43,3.20
2016,03,12,03,44,1.60
2016,03,12,03,51,1.60
2016,03,12,03,52,3.20
2016,03,12,03,53,1.60
2016,03,12,03,54,1.60
2016,03,12,04,04,3.20
2016,03,12,04,05,1.60
2016,03,12,04,06,1.60
2016,03,12,04,08,3.20
2016,03,12,04,09,1.60
2016,03,12,04,22,1.60
2016,03,12,04,23,1.60
2016,03,12,04,34,1.60
2016,03,12,04,40,3.20
2016,03,12,04,41,3.20
2016,03,12,04,42,4.80
2016,03,12,04,43,4.80
2016,03,12,04,44,3.20
2016,03,12,04,45,1.60
2016,03,12,04,48,1.60
2016,03,12,04,51,3.20
2016,03,12,04,52,4.80
2016,03,12,04,53,4.80
2016,03,12,04,54,1.60
2016,03,12,04,56,3.20
2016,03,12,04,57,4.80
2016,03,12,04,58,6.40
2016,03,12,04,59,6.40
2016,03,12,05,00,4.80
2016,03,12,05,01,4.80
2016,03,12,05,02,4.80
2016,03,12,05,03,4.80
2016,03,12,05,04,6.40
2016,03,12,05,05,4.80
2016,03,12,05,06,4.80
2016,03,12,05,07,6.40
2016,03,12,05,08,4.80
2016,03,12,05,09,6.40
2016,03,12,05,10,6.40
2016,03,12,05,11,6.40
2016,03,12,05,12,6.40
2016,03,12,05,13,6.40
2016,03,12,05,14,8.10
2016,03,12,05,15,8.10
2016,03,12,05,16,6.40
2016,03,12,05,17,4.80
2016,03,12,05,18,6.40
2016,03,12,05,19,3.20
2016,03,12,05,20,4.80
2016,03,12,05,28,3.20
2016,03,12,05,29,4.80
2016,03,12,05,30,4.80
2016,03,12,05,31,6.40
2016,03,12,05,32,4.80
2016,03,12,05,33,4.80
2016,03,12,05,34,1.60
2016,03,12,05,35,3.20
2016,03,12,05,36,3.20
2016,03,12,05,37,3.20
2016,03,12,05,38,1.60
2016,03,12,05,39,3.20
2016,03,12,05,40,1.60
2016,03,12,05,41,3.20
2016,03,12,05,42,4.80
2016,03,12,05,43,1.60
2016,03,12,05,44,3.20
2016,03,12,05,45,3.20
2016,03,12,05,47,1.60
2016,03,12,05,48,1.60
2016,03,12,06,00,3.20
2016,03,12,06,01,4.80
2016,03,12,06,02,3.20
2016,03,12,06,03,3.20
2016,03,12,06,04,1.60
2016,03,12,06,05,1.60
2016,03,12,06,06,1.60
2016,03,12,06,07,1.60
2016,03,12,06,09,1.60
2016,03,12,06,10,1.60
2016,03,12,06,12,1.60
2016,03,12,06,15,1.60
2016,03,12,06,16,3.20
2016,03,12,06,24,1.60
2016,03,12,06,26,1.60
2016,03,12,06,28,1.60
2016,03,12,06,29,6.40
2016,03,12,06,30,6.40
2016,03,12,06,32,1.60
2016,03,12,06,33,6.40
2016,03,12,06,34,1.60
2016,03,12,06,35,4.80
2016,03,12,06,36,1.60
2016,03,12,06,37,6.40
2016,03,12,06,38,3.20
2016,03,12,06,39,3.20
2016,03,12,06,40,3.20
2016,03,12,06,41,4.80
2016,03,12,06,42,4.80
2016,03,12,06,43,4.80
2016,03,12,06,44,8.10
2016,03,12,06,45,8.10
2016,03,12,06,46,6.40
2016,03,12,06,47,4.80
2016,03,12,06,48,6.40
2016,03,12,06,49,6.40
2016,03,12,06,50,6.40
2016,03,12,06,51,6.40
2016,03,12,06,52,3.20
2016,03,12,06,53,11.30
2016,03,12,06,54,16.10
2016,03,12,06,55,24.20
2016,03,12,06,56,12.90
2016,03,12,06,57,9.60
2016,03,12,06,58,16.10
2016,03,12,06,59,17.70
2016,03,12,07,00,27.40
2016,03,12,07,01,16.10
2016,03,12,07,02,20.90
2016,03,12,07,03,19.30
2016,03,12,07,04,24.20
2016,03,12,07,05,17.70
2016,03,12,07,06,19.30
2016,03,12,07,07,16.10
2016,03,12,07,08,17.70
2016,03,12,07,09,11.30
2016,03,12,07,10,22.50
2016,03,12,07,11,19.30
2016,03,12,07,12,24.20
2016,03,12,07,13,16.10
2016,03,12,07,14,22.50
2016,03,12,07,15,16.10
2016,03,12,07,16,19.30
2016,03,12,07,17,11.30
2016,03,12,07,18,11.30
2016,03,12,07,19,12.90
2016,03,12,07,20,19.30
2016,03,12,07,21,22.50
2016,03,12,07,22,14.50
2016,03,12,07,23,17.70
2016,03,12,07,24,17.70
2016,03,12,07,25,17.70
2016,03,12,07,26,14.50
2016,03,12,07,27,8.10
2016,03,12,07,28,6.40
2016,03,12,07,29,12.90
2016,03,12,07,30,9.60
2016,03,12,07,31,11.30
2016,03,12,07,32,9.60
2016,03,12,07,33,8.10
2016,03,12,07,34,16.10
2016,03,12,07,35,11.30
2016,03,12,07,36,6.40
2016,03,12,07,37,11.30
2016,03,12,07,38,16.10
2016,03,12,07,39,20.90
2016,03,12,07,40,19.30
2016,03,12,07,41,24.20
2016,03,12,07,42,22.50
2016,03,12,07,43,22.50
2016,03,12,07,44,19.30
2016,03,12,07,45,16.10
2016,03,12,07,46,17.70
2016,03,12,07,47,11.30
2016,03,12,07,48,14.50
2016,03,12,07,49,16.10
2016,03,12,07,50,8.10
2016,03,12,07,51,14.50
2016,03,12,07,52,19.30
2016,03,12,07,53,11.30
2016,03,12,07,54,17.70
2016,03,12,07,55,8.10
2016,03,12,07,56,4.80
2016,03,12,07,57,6.40
2016,03,12,07,58,4.80
2016,03,12,07,59,4.80
2016,03,12,08,01,3.20
2016,03,12,08,02,3.20
2016,03,12,08,03,16.10
2016,03,12,08,04,17.70
2016,03,12,08,05,19.30
2016,03,12,08,06,17.70
2016,03,12,08,07,17.70
2016,03,12,08,08,19.30
2016,03,12,08,09,20.90
2016,03,12,08,10,16.10
2016,03,12,08,11,17.70
2016,03,12,08,12,24.20
2016,03,12,08,13,30.60
2016,03,12,08,14,29.00
2016,03,12,08,15,16.10
2016,03,12,08,16,16.10
2016,03,12,08,17,14.50
2016,03,12,08,18,19.30
2016,03,12,08,19,22.50
2016,03,12,08,20,14.50
2016,03,12,08,21,12.90
2016,03,12,08,22,17.70
2016,03,12,08,23,9.60
2016,03,12,08,24,17.70
2016,03,12,08,25,8.10
2016,03,12,08,26,3.20
2016,03,12,08,27,8.10
2016,03,12,08,28,14.50
2016,03,12,08,29,8.10
2016,03,12,08,30,8.10
2016,03,12,08,31,14.50
2016,03,12,08,32,12.90
2016,03,12,08,33,6.40
2016,03,12,08,34,17.70
2016,03,12,08,35,16.10
2016,03,12,08,36,12.90
2016,03,12,08,37,19.30
2016,03,12,08,38,6.40
2016,03,12,08,39,19.30
2016,03,12,08,40,16.10
2016,03,12,08,41,9.60
2016,03,12,08,42,6.40
2016,03,12,08,43,8.10
2016,03,12,08,44,6.40
2016,03,12,08,45,6.40
2016,03,12,08,46,8.10
2016,03,12,08,47,8.10
2016,03,12,08,48,8.10
2016,03,12,08,49,22.50
2016,03,12,08,50,17.70
2016,03,12,08,51,16.10
2016,03,12,08,52,19.30
2016,03,12,08,53,11.30
2016,03,12,08,54,14.50
2016,03,12,08,55,14.50
2016,03,12,08,56,19.30
2016,03,12,08,57,11.30
2016,03,12,08,58,9.60
2016,03,12,08,59,27.40
2016,03,12,09,00,16.10
2016,03,12,09,01,20.90
2016,03,12,09,02,16.10
2016,03,12,09,03,20.90
2016,03,12,09,04,12.90
2016,03,12,09,05,9.60
2016,03,12,09,06,14.50
2016,03,12,09,07,14.50
2016,03,12,09,08,16.10
2016,03,12,09,09,19.30
2016,03,12,09,10,24.20
2016,03,12,09,11,16.10
2016,03,12,09,12,29.00
2016,03,12,09,13,17.70
2016,03,12,09,14,11.30
2016,03,12,09,15,17.70
2016,03,12,09,16,22.50
2016,03,12,09,17,20.90
2016,03,12,09,18,19.30
2016,03,12,09,19,16.10
2016,03,12,09,20,9.60
2016,03,12,09,21,20.90
2016,03,12,09,22,24.20
2016,03,12,09,23,19.30
2016,03,12,09,24,24.20
2016,03,12,09,25,17.70
2016,03,12,09,26,11.30
2016,03,12,09,27,19.30
2016,03,12,09,28,20.90
2016,03,12,09,29,17.70
2016,03,12,09,30,8.10
2016,03,12,09,31,4.80
2016,03,12,09,32,24.20
2016,03,12,09,33,24.20
2016,03,12,09,34,19.30
2016,03,12,09,35,16.10
2016,03,12,09,36,19.30
2016,03,12,09,37,24.20
2016,03,12,09,38,12.90
2016,03,12,09,39,17.70
2016,03,12,09,40,27.40
2016,03,12,09,41,27.40
2016,03,12,09,42,19.30
2016,03,12,09,43,14.50
2016,03,12,09,44,19.30
2016,03,12,09,45,19.30
2016,03,12,09,46,20.90
2016,03,12,09,47,11.30
2016,03,12,09,48,16.10
2016,03,12,09,49,16.10
2016,03,12,09,50,8.10
2016,03,12,09,51,9.60
2016,03,12,09,52,9.60
2016,03,12,09,53,16.10
2016,03,12,09,54,11.30
2016,03,12,09,55,22.50
2016,03,12,09,56,22.50
2016,03,12,09,57,19.30
2016,03,12,09,58,11.30
2016,03,12,09,59,14.50
2016,03,12,10,00,16.10
2016,03,12,10,01,17.70
2016,03,12,10,02,16.10
2016,03,12,10,03,14.50
2016,03,12,10,04,17.70
2016,03,12,10,05,17.70
2016,03,12,10,06,19.30
2016,03,12,10,07,24.20
2016,03,12,10,08,16.10
2016,03,12,10,09,11.30
2016,03,12,10,10,11.30
2016,03,12,10,11,12.90
2016,03,12,10,12,25.70
2016,03,12,10,13,14.50
2016,03,12,10,14,17.70
2016,03,12,10,15,19.30
2016,03,12,10,16,9.60
2016,03,12,10,17,20.90
2016,03,12,10,18,20.90
2016,03,12,10,19,16.10
2016,03,12,10,20,16.10
2016,03,12,10,21,9.60
2016,03,12,10,22,14.50
2016,03,12,10,23,17.70
2016,03,12,10,24,14.50
2016,03,12,10,25,14.50
2016,03,12,10,26,17.70
2016,03,12,10,27,19.30
2016,03,12,10,28,6.40
2016,03,12,10,29,9.60
2016,03,12,10,30,8.10
2016,03,12,10,31,9.60
2016,03,12,10,32,8.10
2016,03,12,10,33,9.60
2016,03,12,10,34,9.60
2016,03,12,10,35,6.40
2016,03,12,10,36,17.70
2016,03,12,10,37,19.30
2016,03,12,10,38,20.90
2016,03,12,10,39,27.40
2016,03,12,10,40,27.40
2016,03,12,10,41,16.10
2016,03,12,10,42,17.70
2016,03,12,10,43,20.90
2016,03,12,10,44,25.70
2016,03,12,10,45,25.70
2016,03,12,10,46,20.90
2016,03,12,10,47,16.10
2016,03,12,10,48,11.30
2016,03,12,10,49,9.60
2016,03,12,10,50,6.40
2016,03,12,10,51,12.90
2016,03,12,10,52,9.60
2016,03,12,10,53,19.30
2016,03,12,10,54,16.10
2016,03,12,10,55,22.50
2016,03,12,10,56,17.70
2016,03,12,10,57,9.60
2016,03,12,10,58,6.40
2016,03,12,10,59,16.10
2016,03,12,11,00,11.30
2016,03,12,11,01,19.30
2016,03,12,11,02,16.10
2016,03,12,11,03,20.90
2016,03,12,11,04,8.10
2016,03,12,11,05,11.30
2016,03,12,11,06,25.70
2016,03,12,11,07,24.20
2016,03,12,11,08,16.10
2016,03,12,11,09,16.10
2016,03,12,11,10,8.10
2016,03,12,11,11,6.40
2016,03,12,11,12,12.90
2016,03,12,11,13,16.10
2016,03,12,11,14,19.30
2016,03,12,11,15,14.50
2016,03,12,11,16,20.90
2016,03,12,11,17,17.70
2016,03,12,11,18,14.50
2016,03,12,11,19,11.30
2016,03,12,11,20,9.60
2016,03,12,11,21,11.30
2016,03,12,11,22,14.50
2016,03,12,11,23,11.30
2016,03,12,11,24,12.90
2016,03,12,11,25,19.30
2016,03,12,11,26,14.50
2016,03,12,11,27,20.90
2016,03,12,11,28,17.70
2016,03,12,11,29,16.10
2016,03,12,11,30,17.70
2016,03,12,11,31,17.70
2016,03,12,11,32,17.70
2016,03,12,11,33,22.50
2016,03,12,11,34,19.30
2016,03,12,11,35,19.30
2016,03,12,11,36,17.70
2016,03,12,11,37,9.60
2016,03,12,11,38,9.60
2016,03,12,11,39,14.50
2016,03,12,11,40,8.10
2016,03,12,11,41,9.60
2016,03,12,11,42,16.10
2016,03,12,11,43,14.50
2016,03,12,11,44,16.10
2016,03,12,11,45,19.30
2016,03,12,11,46,19.30
2016,03,12,11,47,17.70
2016,03,12,11,48,16.10
2016,03,12,11,49,14.50
2016,03,12,11,50,9.60
2016,03,12,11,51,11.30
2016,03,12,11,52,8.10
2016,03,12,11,53,8.10
2016,03,12,11,54,4.80
2016,03,12,11,55,8.10
2016,03,12,11,56,9.60
2016,03,12,11,57,14.50
2016,03,12,11,58,16.10
2016,03,12,11,59,16.10
2016,03,12,12,00,12.90
2016,03,12,12,01,9.60
2016,03,12,12,02,6.40
2016,03,12,12,03,8.10
2016,03,12,12,04,8.10
2016,03,12,12,05,9.60
2016,03,12,12,06,9.60
2016,03,12,12,07,4.80
2016,03,12,12,08,16.10
2016,03,12,12,09,16.10
2016,03,12,12,10,16.10
2016,03,12,12,11,6.40
2016,03,12,12,12,9.60
2016,03,12,12,13,6.40
2016,03,12,12,14,6.40
2016,03,12,12,15,9.60
2016,03,12,12,16,4.80
2016,03,12,12,17,6.40
2016,03,12,12,18,9.60
2016,03,12,12,19,9.60
2016,03,12,12,20,8.10
2016,03,12,12,21,9.60
2016,03,12,12,22,6.40
2016,03,12,12,23,9.60
2016,03,12,12,24,8.10
2016,03,12,12,25,11.30
2016,03,12,12,26,9.60
2016,03,12,12,27,8.10
2016,03,12,12,28,4.80
2016,03,12,12,29,11.30
2016,03,12,12,30,9.60
2016,03,12,12,31,3.20
2016,03,12,12,32,6.40
2016,03,12,12,33,3.20
2016,03,12,12,34,6.40
2016,03,12,12,35,6.40
2016,03,12,12,36,6.40
2016,03,12,12,37,6.40
2016,03,12,12,38,8.10
2016,03,12,12,39,6.40
2016,03,12,12,40,4.80
2016,03,12,12,41,8.10
2016,03,12,12,42,9.60
2016,03,12,12,43,11.30
2016,03,12,12,44,9.60
2016,03,12,12,45,9.60
2016,03,12,12,46,6.40
2016,03,12,12,47,9.60
2016,03,12,12,48,4.80
2016,03,12,12,49,4.80
2016,03,12,12,50,8.10
2016,03,12,12,51,4.80
2016,03,12,12,52,3.20
2016,03,12,12,53,1.60
2016,03,12,12,54,1.60
2016,03,12,12,55,3.20
2016,03,12,12,56,3.20
2016,03,12,12,57,1.60
2016,03,12,12,58,3.20
2016,03,12,12,59,6.40
2016,03,12,13,00,4.80
2016,03,12,13,01,8.10
2016,03,12,13,02,6.40
2016,03,12,13,03,1.60
2016,03,12,13,04,1.60
2016,03,12,13,05,6.40
2016,03,12,13,06,6.40
2016,03,12,13,07,4.80
2016,03,12,13,08,4.80
2016,03,12,13,09,3.20
2016,03,12,13,10,3.20
2016,03,12,13,11,8.10
2016,03,12,13,12,8.10
2016,03,12,13,13,6.40
2016,03,12,13,14,9.60
2016,03,12,13,15,6.40
2016,03,12,13,17,1.60
2016,03,12,13,18,4.80
2016,03,12,13,19,3.20
2016,03,12,13,20,3.20
2016,03,12,13,21,1.60
2016,03,12,13,22,3.20
2016,03,12,13,23,1.60
2016,03,12,13,24,1.60
2016,03,12,13,25,1.60
2016,03,12,13,26,1.60
2016,03,12,13,27,6.40
2016,03,12,13,28,4.80
2016,03,12,13,29,6.40
2016,03,12,13,30,6.40
2016,03,12,13,31,3.20
2016,03,12,13,32,3.20
2016,03,12,13,33,4.80
2016,03,12,13,34,4.80
2016,03,12,13,35,9.60
2016,03,12,13,36,11.30
2016,03,12,13,37,9.60
2016,03,12,13,38,8.10
2016,03,12,13,39,4.80
2016,03,12,13,40,9.60
2016,03,12,13,41,4.80
2016,03,12,13,42,6.40
2016,03,12,13,43,3.20
2016,03,12,13,44,3.20
2016,03,12,13,45,3.20
2016,03,12,13,46,6.40
2016,03,12,13,47,8.10
2016,03,12,13,48,8.10
2016,03,12,13,49,11.30
2016,03,12,13,50,14.50
2016,03,12,13,51,12.90
2016,03,12,13,52,6.40
2016,03,12,13,53,4.80
2016,03,12,13,54,6.40
2016,03,12,13,55,14.50
2016,03,12,13,56,9.60
2016,03,12,13,57,8.10
2016,03,12,13,58,6.40
2016,03,12,13,59,12.90
2016,03,12,14,00,12.90
2016,03,12,14,01,9.60
2016,03,12,14,02,8.10
2016,03,12,14,03,11.30
2016,03,12,14,04,16.10
2016,03,12,14,05,12.90
2016,03,12,14,06,11.30
2016,03,12,14,07,9.60
2016,03,12,14,08,6.40
2016,03,12,14,09,6.40
2016,03,12,14,10,6.40
2016,03,12,14,11,4.80
2016,03,12,14,12,9.60
2016,03,12,14,13,14.50
2016,03,12,14,14,8.10
2016,03,12,14,15,9.60
2016,03,12,14,16,8.10
2016,03,12,14,17,17.70
2016,03,12,14,18,16.10
2016,03,12,14,19,11.30
2016,03,12,14,20,14.50
2016,03,12,14,21,11.30
2016,03,12,14,22,8.10
2016,03,12,14,23,9.60
2016,03,12,14,24,12.90
2016,03,12,14,25,11.30
2016,03,12,14,26,12.90
2016,03,12,14,27,17.70
2016,03,12,14,28,11.30
2016,03,12,14,29,6.40
2016,03,12,14,30,14.50
2016,03,12,14,31,14.50
2016,03,12,14,32,19.30
2016,03,12,14,33,16.10
2016,03,12,14,34,12.90
2016,03,12,14,35,8.10
2016,03,12,14,36,11.30
2016,03,12,14,37,9.60
2016,03,12,14,38,11.30
2016,03,12,14,39,12.90
2016,03,12,14,40,8.10
2016,03,12,14,41,6.40
2016,03,12,14,42,6.40
2016,03,12,14,43,14.50
2016,03,12,14,44,16.10
2016,03,12,14,45,16.10
2016,03,12,14,46,12.90
2016,03,12,14,47,9.60
2016,03,12,14,48,17.70
2016,03,12,14,49,16.10
2016,03,12,14,50,16.10
2016,03,12,14,51,11.30
2016,03,12,14,52,11.30
2016,03,12,14,53,9.60
2016,03,12,14,54,17.70
2016,03,12,14,55,20.90
2016,03,12,14,56,20.90
2016,03,12,14,57,20.90
2016,03,12,14,58,14.50
2016,03,12,14,59,20.90
2016,03,12,15,00,20.90
2016,03,12,15,01,6.40
2016,03,12,15,02,11.30
2016,03,12,15,03,14.50
2016,03,12,15,04,6.40
2016,03,12,15,05,11.30
2016,03,12,15,06,17.70
2016,03,12,15,07,19.30
2016,03,12,15,08,9.60
2016,03,12,15,09,17.70
2016,03,12,15,10,14.50
2016,03,12,15,11,9.60
2016,03,12,15,12,16.10
2016,03,12,15,13,11.30
2016,03,12,15,14,9.60
2016,03,12,15,15,6.40
2016,03,12,15,16,8.10
2016,03,12,15,17,9.60
2016,03,12,15,18,12.90
2016,03,12,15,19,9.60
2016,03,12,15,20,9.60
2016,03,12,15,21,4.80
2016,03,12,15,22,6.40
2016,03,12,15,23,17.70
2016,03,12,15,24,8.10
2016,03,12,15,25,11.30
2016,03,12,15,26,9.60
2016,03,12,15,27,9.60
2016,03,12,15,28,4.80
2016,03,12,15,29,9.60
2016,03,12,15,30,16.10
2016,03,12,15,31,19.30
2016,03,12,15,32,17.70
2016,03,12,15,33,19.30
2016,03,12,15,34,16.10
2016,03,12,15,35,16.10
2016,03,12,15,36,8.10
2016,03,12,15,37,11.30
2016,03,12,15,38,11.30
2016,03,12,15,39,6.40
2016,03,12,15,40,4.80
2016,03,12,15,41,16.10
2016,03,12,15,42,11.30
2016,03,12,15,43,16.10
2016,03,12,15,44,16.10
2016,03,12,15,45,22.50
2016,03,12,15,46,22.50
2016,03,12,15,47,19.30
2016,03,12,15,48,9.60
2016,03,12,15,49,20.90
2016,03,12,15,50,16.10
2016,03,12,15,51,22.50
2016,03,12,15,52,19.30
2016,03,12,15,53,17.70
2016,03,12,15,54,16.10
2016,03,12,15,55,8.10
2016,03,12,15,56,17.70
2016,03,12,15,57,14.50
2016,03,12,15,58,14.50
2016,03,12,15,59,8.10
2016,03,12,16,00,6.40
2016,03,12,16,01,6.40
2016,03,12,16,02,6.40
2016,03,12,16,03,4.80
2016,03,12,16,04,9.60
2016,03,12,16,05,9.60
2016,03,12,16,06,8.10
2016,03,12,16,07,8.10
2016,03,12,16,08,6.40
2016,03,12,16,09,9.60
2016,03,12,16,10,14.50
2016,03,12,16,11,11.30
2016,03,12,16,12,9.60
2016,03,12,16,13,11.30
2016,03,12,16,14,8.10
2016,03,12,16,15,8.10
2016,03,12,16,16,8.10
2016,03,12,16,17,11.30
2016,03,12,16,18,8.10
2016,03,12,16,19,8.10
2016,03,12,16,20,8.10
2016,03,12,16,21,8.10
2016,03,12,16,22,6.40
2016,03,12,16,23,4.80
2016,03,12,16,24,11.30
2016,03,12,16,25,8.10
2016,03,12,16,26,6.40
2016,03,12,16,27,8.10
2016,03,12,16,28,8.10
2016,03,12,16,29,8.10
2016,03,12,16,30,8.10
2016,03,12,16,31,14.50
2016,03,12,16,32,14.50
2016,03,12,16,33,9.60
2016,03,12,16,34,8.10
2016,03,12,16,35,17.70
2016,03,12,16,36,14.50
2016,03,12,16,37,11.30
2016,03,12,16,38,16.10
2016,03,12,16,39,12.90
2016,03,12,16,40,11.30
2016,03,12,16,41,11.30
2016,03,12,16,42,14.50
2016,03,12,16,43,11.30
2016,03,12,16,44,12.90
2016,03,12,16,45,9.60
2016,03,12,16,46,17.70
2016,03,12,16,47,17.70
2016,03,12,16,48,14.50
2016,03,12,16,49,11.30
2016,03,12,16,50,17.70
2016,03,12,16,51,9.60
2016,03,12,16,52,9.60
2016,03,12,16,53,8.10
2016,03,12,16,54,8.10
2016,03,12,16,55,11.30
2016,03,12,16,56,8.10
2016,03,12,16,57,8.10
2016,03,12,16,58,9.60
2016,03,12,16,59,11.30
2016,03,12,17,00,8.10
2016,03,12,17,01,9.60
2016,03,12,17,02,9.60
2016,03,12,17,03,14.50
2016,03,12,17,04,11.30
2016,03,12,17,05,11.30
2016,03,12,17,06,14.50
2016,03,12,17,07,12.90
2016,03,12,17,08,16.10
2016,03,12,17,09,14.50
2016,03,12,17,10,6.40
2016,03,12,17,11,4.80
2016,03,12,17,12,4.80
2016,03,12,17,13,11.30
2016,03,12,17,14,11.30
2016,03,12,17,15,9.60
2016,03,12,17,16,11.30
2016,03,12,17,17,11.30
2016,03,12,17,18,11.30
2016,03,12,17,19,11.30
2016,03,12,17,20,11.30
2016,03,12,17,21,14.50
2016,03,12,17,22,8.10
2016,03,12,17,23,16.10
2016,03,12,17,24,11.30
2016,03,12,17,25,8.10
2016,03,12,17,26,8.10
2016,03,12,17,27,9.60
2016,03,12,17,28,4.80
2016,03,12,17,29,3.20
2016,03,12,17,30,4.80
2016,03,12,17,31,8.10
2016,03,12,17,32,6.40
2016,03,12,17,33,11.30
2016,03,12,17,34,14.50
2016,03,12,17,35,9.60
2016,03,12,17,36,9.60
2016,03,12,17,37,8.10
2016,03,12,17,38,8.10
2016,03,12,17,39,8.10
2016,03,12,17,40,6.40
2016,03,12,17,41,4.80
2016,03,12,17,42,3.20
2016,03,12,17,46,3.20
2016,03,12,17,47,4.80
2016,03,12,17,48,3.20
2016,03,12,17,49,1.60
2016,03,12,17,50,3.20
2016,03,12,17,51,3.20
2016,03,12,17,52,3.20
2016,03,12,17,56,1.60
2016,03,12,17,57,1.60
2016,03,12,17,59,4.80
2016,03,12,18,00,1.60
2016,03,12,18,02,1.60
2016,03,12,18,14,4.80
2016,03,12,18,15,3.20
2016,03,12,18,18,4.80
2016,03,12,18,19,4.80
2016,03,12,18,25,3.20
2016,03,12,18,27,3.20
2016,03,12,18,28,1.60
2016,03,12,18,34,4.80
2016,03,12,18,35,6.40
2016,03,12,18,36,6.40
2016,03,12,18,37,1.60
2016,03,12,18,38,1.60
2016,03,12,18,39,3.20
2016,03,12,18,40,3.20
2016,03,12,18,41,1.60
2016,03,12,18,44,1.60
2016,03,12,18,46,4.80
2016,03,12,18,47,3.20
2016,03,12,18,48,3.20
2016,03,12,18,51,1.60
2016,03,12,18,58,3.20
2016,03,12,18,59,3.20
2016,03,12,19,00,1.60
2016,03,12,19,01,1.60
2016,03,12,19,02,1.60
2016,03,12,19,04,1.60
2016,03,12,19,05,3.20
2016,03,12,19,06,1.60
2016,03,12,19,07,1.60
2016,03,12,19,08,1.60
2016,03,12,19,14,3.20
2016,03,12,19,15,3.20
2016,03,12,19,16,1.60
2016,03,12,19,17,3.20
2016,03,12,19,18,1.60
2016,03,12,19,20,1.60
2016,03,12,19,21,3.20
2016,03,12,19,22,3.20
2016,03,12,19,23,3.20
2016,03,12,19,24,1.60
2016,03,12,19,30,1.60
2016,03,12,19,32,1.60
2016,03,12,19,33,4.80
2016,03,12,19,34,4.80
2016,03,12,19,35,4.80
2016,03,12,19,39,1.60
2016,03,12,19,49,3.20
2016,03,12,19,50,3.20
2016,03,12,19,51,1.60
2016,03,12,19,52,1.60
2016,03,12,20,02,1.60
2016,03,12,20,05,1.60
2016,03,12,20,06,1.60
2016,03,12,20,07,1.60
2016,03,12,20,09,1.60
2016,03,12,20,10,4.80
2016,03,12,20,11,4.80
2016,03,12,20,12,3.20
2016,03,12,20,13,1.60
2016,03,12,20,15,1.60
2016,03,12,20,16,1.60
2016,03,12,20,17,3.20
2016,03,12,20,18,4.80
2016,03,12,20,19,4.80
2016,03,12,20,20,4.80
2016,03,12,20,21,3.20
2016,03,12,20,22,3.20
2016,03,12,20,23,3.20
2016,03,12,20,24,1.60
2016,03,12,20,26,1.60
2016,03,12,20,27,3.20
2016,03,12,20,28,1.60
2016,03,12,20,29,3.20
2016,03,12,20,30,4.80
2016,03,12,20,32,1.60
2016,03,12,20,47,1.60
2016,03,12,21,00,1.60
2016,03,12,21,11,1.60
2016,03,12,21,12,1.60
2016,03,12,21,13,1.60
2016,03,12,21,14,1.60
2016,03,12,21,15,3.20
2016,03,12,21,16,3.20
2016,03,12,21,17,1.60
2016,03,12,21,18,1.60
2016,03,12,21,19,1.60
2016,03,12,21,20,1.60
2016,03,12,21,26,3.20
2016,03,12,21,27,3.20
2016,03,12,21,28,1.60
2016,03,12,22,06,1.60
2016,03,12,22,07,1.60
2016,03,12,22,10,3.20
2016,03,12,22,11,1.60
2016,03,12,22,12,1.60
2016,03,12,22,49,1.60
2016,03,12,22,50,3.20
2016,03,12,22,51,4.80
2016,03,12,22,52,3.20
2016,03,12,22,53,1.60
2016,03,12,22,55,1.60
2016,03,12,22,56,1.60
2016,03,12,22,58,1.60
2016,03,12,23,07,1.60
2016,03,12,23,08,1.60
2016,03,12,23,09,3.20
2016,03,12,23,10,1.60
2016,03,12,23,16,1.60
2016,03,12,23,22,1.60
2016,03,12,23,23,1.60
2016,03,12,23,24,1.60
2016,03,12,23,52,1.60
